• In Schweiz
  • Länderverzeichnis
  • Für 7 Tage
  • Wassertemperatur
  • Satellitenkarten
  • Wetterkarte
  • Widgets
  • user-avatar
    Anmelden

    Stündliche Wetter Vennesla

    Heute, 19 Juli, Donnerstag

    Zeit Temperatur Niederschläge Wind Luftdruck Luftfeuchtigkeit
    00:00 +13°C° 0 mm 4 m/S 739 mmHg 84%
    01:00 +12°C° 0 mm 4 m/S 739 mmHg 88%
    02:00 +12°C° 0 mm 4 m/S 739 mmHg 88%
    03:00 +12°C° 0 mm 4 m/S 739 mmHg 88%
    04:00 +11°C° 0 mm 4 m/S 739 mmHg 89%
    05:00 +13°C° 0 mm 4 m/S 739 mmHg 81%
    06:00 +15°C° 0 mm 4 m/S 739 mmHg 73%
    07:00 +18°C° 0 mm 3 m/S 740 mmHg 64%
    08:00 +20°C° 0 mm 3 m/S 740 mmHg 58%
    09:00 +22°C° 0 mm 3 m/S 740 mmHg 52%
    10:00 +25°C° 0 mm 3 m/S 740 mmHg 47%
    11:00 +25°C° 0 mm 3 m/S 740 mmHg 44%
    12:00 +26°C° 0 mm 3 m/S 740 mmHg 41%
    13:00 +27°C° 0 mm 4 m/S 740 mmHg 38%
    14:00 +27°C° 0 mm 4 m/S 739 mmHg 38%
    15:00 +27°C° 0 mm 4 m/S 739 mmHg 39%
    16:00 +26°C° 0 mm 4 m/S 739 mmHg 40%
    17:00 +26°C° 0 mm 4 m/S 739 mmHg 43%
    18:00 +25°C° 0 mm 4 m/S 739 mmHg 45%
    19:00 +23°C° 0 mm 4 m/S 738 mmHg 48%
    20:00 +21°C° 0 mm 4 m/S 738 mmHg 57%
    21:00 +18°C° 0 mm 3 m/S 738 mmHg 66%
    22:00 +16°C° 0 mm 3 m/S 738 mmHg 74%
    23:00 +14°C° 0 mm 3 m/S 738 mmHg 75%

    Morgen, 20 Juli, Freitag

    Zeit Temperatur Niederschläge Wind Luftdruck Luftfeuchtigkeit
    00:00 +14°C° 0 mm 3 m/S 738 mmHg 76%
    01:00 +13°C° 0 mm 3 m/S 738 mmHg 78%
    02:00 +13°C° 0 mm 3 m/S 737 mmHg 78%
    03:00 +12°C° 0 mm 3 m/S 737 mmHg 78%
    04:00 +12°C° 0 mm 3 m/S 737 mmHg 79%
    05:00 +14°C° 0 mm 3 m/S 737 mmHg 71%
    06:00 +16°C° 0 mm 3 m/S 737 mmHg 64%
    07:00 +18°C° 0 mm 3 m/S 737 mmHg 56%
    08:00 +20°C° 0 mm 3 m/S 737 mmHg 51%
    09:00 +22°C° 0 mm 3 m/S 737 mmHg 45%
    10:00 +23°C° 0 mm 4 m/S 737 mmHg 40%
    11:00 +25°C° 0 mm 4 m/S 737 mmHg 39%
    12:00 +25°C° 0 mm 5 m/S 737 mmHg 39%
    13:00 +26°C° 0 mm 6 m/S 737 mmHg 38%
    14:00 +26°C° 0 mm 6 m/S 737 mmHg 39%
    15:00 +24°C° 0 mm 7 m/S 737 mmHg 41%
    16:00 +24°C° 0 mm 7 m/S 737 mmHg 42%
    17:00 +23°C° 0 mm 7 m/S 736 mmHg 46%
    18:00 +22°C° 0 mm 7 m/S 736 mmHg 50%
    19:00 +21°C° 0 mm 7 m/S 736 mmHg 54%
    20:00 +19°C° 0 mm 6 m/S 736 mmHg 62%
    21:00 +17°C° 0 mm 5 m/S 736 mmHg 70%
    22:00 +15°C° 0 mm 5 m/S 736 mmHg 79%
    23:00 +14°C° 0 mm 5 m/S 736 mmHg 82%

    übermorgen, 21 Juli, Samstag

    Zeit Temperatur Niederschläge Wind Luftdruck Luftfeuchtigkeit
    00:00 +13°C° 0 mm 4 m/S 736 mmHg 85%
    01:00 +12°C° 0 mm 4 m/S 735 mmHg 87%
    02:00 +12°C° 0 mm 4 m/S 735 mmHg 89%
    03:00 +12°C° 0 mm 5 m/S 735 mmHg 90%
    04:00 +10°C° 0 mm 5 m/S 735 mmHg 91%
    05:00 +13°C° 0 mm 5 m/S 735 mmHg 84%
    06:00 +14°C° 0 mm 5 m/S 735 mmHg 77%
    07:00 +16°C° 0 mm 5 m/S 735 mmHg 70%
    08:00 +17°C° 0 mm 5 m/S 735 mmHg 66%
    09:00 +20°C° 0 mm 5 m/S 735 mmHg 61%
    10:00 +21°C° 0 mm 6 m/S 735 mmHg 56%
    11:00 +21°C° 0 mm 6 m/S 735 mmHg 57%
    12:00 +22°C° 0 mm 6 m/S 735 mmHg 57%
    13:00 +22°C° 0 mm 7 m/S 735 mmHg 58%
    14:00 +21°C° 0 mm 7 m/S 735 mmHg 58%
    15:00 +21°C° 0 mm 6 m/S 735 mmHg 58%
    16:00 +21°C° 0 mm 6 m/S 735 mmHg 59%
    17:00 +20°C° 0 mm 6 m/S 735 mmHg 60%
    18:00 +20°C° 0 mm 6 m/S 735 mmHg 62%
    19:00 +19°C° 0 mm 6 m/S 735 mmHg 63%
    20:00 +17°C° 0 mm 6 m/S 735 mmHg 69%
    21:00 +15°C° 0 mm 5 m/S 734 mmHg 75%
    22:00 +14°C° 0 mm 5 m/S 734 mmHg 81%
    23:00 +13°C° 0 mm 5 m/S 734 mmHg 83%

    22 Juli, Sonntag

    Zeit Temperatur Niederschläge Wind Luftdruck Luftfeuchtigkeit
    00:00 +13°C° 0 mm 5 m/S 734 mmHg 85%
    01:00 +12°C° 0 mm 5 m/S 734 mmHg 88%
    02:00 +12°C° 0 mm 5 m/S 734 mmHg 88%
    03:00 +12°C° 0 mm 5 m/S 734 mmHg 89%
    04:00 +12°C° 0 mm 5 m/S 734 mmHg 89%
    05:00 +13°C° 0 mm 5 m/S 734 mmHg 82%
    06:00 +15°C° 0 mm 5 m/S 734 mmHg 74%
    07:00 +16°C° 0 mm 5 m/S 734 mmHg 66%
    08:00 +19°C° 0 mm 5 m/S 734 mmHg 59%
    09:00 +21°C° 0 mm 5 m/S 735 mmHg 52%
    10:00 +23°C° 0 mm 4 m/S 735 mmHg 45%
    11:00 +25°C° 0 mm 5 m/S 735 mmHg 43%
    12:00 +26°C° 0 mm 5 m/S 735 mmHg 40%
    13:00 +27°C° 0 mm 6 m/S 735 mmHg 37%
    14:00 +27°C° 0 mm 6 m/S 735 mmHg 38%
    15:00 +27°C° 0 mm 7 m/S 735 mmHg 39%
    16:00 +27°C° 0 mm 7 m/S 735 mmHg 40%
    17:00 +26°C° 0 mm 7 m/S 735 mmHg 44%
    18:00 +23°C° 0 mm 7 m/S 735 mmHg 49%
    19:00 +22°C° 0 mm 7 m/S 735 mmHg 54%
    20:00 +21°C° 0 mm 6 m/S 735 mmHg 61%
    21:00 +19°C° 0 mm 6 m/S 735 mmHg 69%
    22:00 +16°C° 0 mm 5 m/S 735 mmHg 76%
    23:00 +16°C° 0 mm 5 m/S 735 mmHg 79%

    23 Juli, Montag

    Zeit Temperatur Niederschläge Wind Luftdruck Luftfeuchtigkeit
    00:00 +15°C° 0 mm 5 m/S 735 mmHg 81%
    01:00 +14°C° 0 mm 5 m/S 735 mmHg 84%
    02:00 +14°C° 0 mm 5 m/S 735 mmHg 85%
    03:00 +14°C° 0 mm 5 m/S 735 mmHg 86%
    04:00 +14°C° 0 mm 5 m/S 735 mmHg 88%
    05:00 +16°C° 0 mm 5 m/S 735 mmHg 81%
    06:00 +17°C° 0 mm 5 m/S 735 mmHg 75%
    07:00 +20°C° 0 mm 5 m/S 735 mmHg 69%
    08:00 +21°C° 0 mm 5 m/S 735 mmHg 64%
    09:00 +23°C° 0 mm 5 m/S 735 mmHg 59%
    10:00 +24°C° 0 mm 6 m/S 735 mmHg 54%
    11:00 +26°C° 0 mm 6 m/S 736 mmHg 53%
    12:00 +26°C° 0 mm 6 m/S 736 mmHg 52%
    13:00 +27°C° 0 mm 7 m/S 736 mmHg 50%
    14:00 +26°C° 0 mm 7 m/S 736 mmHg 53%
    15:00 +26°C° 0 mm 7 m/S 736 mmHg 56%
    16:00 +24°C° 0 mm 7 m/S 736 mmHg 59%
    17:00 +23°C° 0 mm 7 m/S 736 mmHg 63%
    18:00 +22°C° 0 mm 6 m/S 735 mmHg 67%
    19:00 +21°C° 0 mm 6 m/S 735 mmHg 71%
    20:00 +20°C° 0 mm 6 m/S 736 mmHg 77%
    21:00 +17°C° 0 mm 5 m/S 736 mmHg 83%
    22:00 +17°C° 0 mm 4 m/S 736 mmHg 89%
    23:00 +17°C° 0 mm 4 m/S 736 mmHg 90%

    24 Juli, Dienstag

    Zeit Temperatur Niederschläge Wind Luftdruck Luftfeuchtigkeit
    00:00 +15°C° 0 mm 4 m/S 736 mmHg 92%
    01:00 +15°C° 0 mm 4 m/S 736 mmHg 94%
    02:00 +15°C° 0 mm 4 m/S 736 mmHg 94%
    03:00 +16°C° 0 mm 3 m/S 736 mmHg 95%
    04:00 +16°C° 0 mm 3 m/S 736 mmHg 96%
    05:00 +16°C° 0 mm 3 m/S 736 mmHg 93%
    06:00 +17°C° 0 mm 3 m/S 736 mmHg 90%
    07:00 +18°C° 0 mm 4 m/S 736 mmHg 87%
    08:00 +19°C° 0 mm 4 m/S 736 mmHg 83%
    09:00 +20°C° 0 mm 4 m/S 736 mmHg 79%
    10:00 +20°C° 0 mm 4 m/S 736 mmHg 75%
    11:00 +21°C° 0,1 mm 4 m/S 737 mmHg 72%
    12:00 +21°C° 0,1 mm 4 m/S 737 mmHg 70%
    13:00 +22°C° 0,1 mm 4 m/S 737 mmHg 67%
    14:00 +21°C° 0,3 mm 4 m/S 737 mmHg 75%
    15:00 +20°C° 0,3 mm 3 m/S 737 mmHg 82%
    16:00 +18°C° 0,3 mm 3 m/S 737 mmHg 90%
    17:00 +19°C° 0 mm 3 m/S 737 mmHg 88%
    18:00 +19°C° 0 mm 3 m/S 737 mmHg 85%
    19:00 +19°C° 0 mm 3 m/S 737 mmHg 83%
    20:00 +18°C° 0 mm 3 m/S 737 mmHg 87%
    21:00 +16°C° 0 mm 3 m/S 737 mmHg 91%
    22:00 +14°C° 0 mm 3 m/S 737 mmHg 96%
    23:00 +13°C° 0 mm 3 m/S 737 mmHg 96%
    Mehr zeigen